New Philadelphia, OH

1:39 PM EST on February 10, 2016 (GMT -0500)
Clever

Weather History for KPHD - September, 2013

Change the Weather History Date:

Tuesday, September 3, 2013

  Actual Average Record
Temperature  
Mean Temperature 62 °F 68 °F  
Max Temperature 72 °F 80 °F 93 °F (2015)
Min Temperature 52 °F 57 °F 41 °F (1967)
Degree Days  
Heating Degree Days 3 1  
Month to date heating degree days 3 3  
Since 1 July heating degree days 17 13  
Cooling Degree Days 0 4  
Month to date cooling degree days 19 12  
Year to date cooling degree days 664 634  
Growing Degree Days 12 (Base 50)    
Moisture  
Dew Point 56 °F    
Average Humidity 77    
Maximum Humidity 97    
Minimum Humidity 57    
Precipitation  
Precipitation 0.00 in 0.13 in 1.57 in (1982)
Month to date precipitation 0.30 0.38  
Year to date precipitation 24.04 27.33  
Sea Level Pressure  
Sea Level Pressure 29.96 in    
Wind  
Wind Speed 4 mph (NW)    
Max Wind Speed 14 mph    
Max Gust Speed 17 mph    
Visibility 7 miles    
Events      
T = Trace of Precipitation, MM = Missing Value Source: NWS Daily Summary

Daily Weather History Graph

Daily Weather History Graph

Search for Another Location

Airport or City:

Trip Planner

Search our weather history database for the weather conditions in past years. The results will help you decide how hot, cold, wet, or windy it might be!

Date:

Astronomy

Sep. 03, 2013 Rise Set
Actual Time 6:55 AM EDT 7:54 PM EDT
Civil Twilight 6:27 AM EDT 8:21 PM EDT
Nautical Twilight 5:54 AM EDT 8:54 PM EDT
Astronomical Twilight 5:19 AM EDT 9:29 PM EDT
Moon 5:07 AM EDT (9/3) 6:40 PM EDT (9/3)
Length of Visible Light 13h 54m
Length of Day
12h 58m
Waning Crescent, 3% of the Moon is Illuminated
Sep 3
Waning Crescent
Sep 5
New
Sep 12
First Quarter
Sep 19
Full
Sep 26
Last Quarter

Hourly Weather History & Observations

Time (EDT) Temp. Dew Point Humidity Pressure Visibility Wind Dir Wind Speed Gust Speed Precip Events Conditions
12:53 AM 61.0 °F 59.0 °F 93% 29.88 in 7.0 mi Calm Calm - N/A   Mostly Cloudy
1:53 AM 63.0 °F 60.1 °F 90% 29.88 in 8.0 mi Calm Calm - N/A   Overcast
2:53 AM 62.1 °F 60.1 °F 93% 29.87 in 7.0 mi Calm Calm - N/A   Overcast
3:17 AM 62.6 °F 60.8 °F 94% 29.89 in 2.5 mi Calm Calm - N/A   Mostly Cloudy
3:26 AM 60.8 °F 60.8 °F 100% 29.89 in 4.0 mi Calm Calm - N/A   Scattered Clouds
3:41 AM 60.8 °F 57.2 °F 88% 29.89 in 1.8 mi Calm Calm - N/A   Clear
3:45 AM 60.8 °F 57.2 °F 88% 29.88 in 0.8 mi Calm Calm - N/A   Clear
3:53 AM 60.1 °F 57.9 °F 93% 29.87 in 1.8 mi Calm Calm - N/A   Clear
3:55 AM 60.8 °F 57.2 °F 88% 29.88 in 3.0 mi Calm Calm - 0.01 in   Clear
4:06 AM 60.8 °F 57.2 °F 88% 29.89 in 1.8 mi Calm Calm - 0.01 in   Clear
4:10 AM 60.8 °F 57.2 °F 88% 29.89 in 0.8 mi Calm Calm - 0.01 in   Clear
4:22 AM 60.8 °F 57.2 °F 88% 29.89 in 2.0 mi Calm Calm - 0.01 in   Clear
4:30 AM 60.8 °F 57.2 °F 88% 29.90 in 7.0 mi Calm Calm - 0.01 in   Clear
4:53 AM 60.1 °F 57.9 °F 93% 29.89 in 10.0 mi Calm Calm - 0.01 in   Clear
5:33 AM 60.8 °F 57.2 °F 88% 29.91 in 5.0 mi Calm Calm - N/A   Mostly Cloudy
5:53 AM 59.0 °F 57.0 °F 93% 29.91 in 10.0 mi Calm Calm - N/A   Overcast
6:24 AM 59.0 °F 57.2 °F 94% 29.93 in 9.0 mi Calm Calm - N/A   Scattered Clouds
6:53 AM 57.9 °F 55.9 °F 93% 29.93 in 7.0 mi NW 3.5 mph - N/A   Mostly Cloudy
7:53 AM 61.0 °F 57.0 °F 87% 29.95 in 10.0 mi NW 3.5 mph - N/A   Overcast
8:53 AM 62.1 °F 57.9 °F 86% 29.97 in 10.0 mi NW 4.6 mph - N/A   Overcast
9:45 AM 64.4 °F 57.2 °F 77% 29.99 in 10.0 mi NNW 10.4 mph - N/A   Overcast
9:53 AM 64.0 °F 57.0 °F 78% 29.99 in 10.0 mi NW 5.8 mph - N/A   Overcast
10:34 AM 64.4 °F 57.2 °F 77% 30.00 in 10.0 mi NNW 5.8 mph - N/A   Overcast
10:53 AM 66.9 °F 57.0 °F 70% 29.99 in 10.0 mi WNW 9.2 mph - N/A   Mostly Cloudy
11:53 AM 68.0 °F 53.1 °F 59% 30.00 in 10.0 mi Variable 6.9 mph - N/A   Mostly Cloudy
12:53 PM 66.9 °F 53.1 °F 61% 30.00 in 10.0 mi WNW 9.2 mph - N/A   Unknown
1:53 PM 70.0 °F 53.1 °F 55% 30.00 in 10.0 mi NNW 9.2 mph - N/A   Overcast
2:53 PM 66.0 °F 54.0 °F 65% 30.01 in 10.0 mi NNW 11.5 mph - N/A   Overcast
3:11 PM 64.4 °F 53.6 °F 68% 30.02 in 10.0 mi North 8.1 mph - N/A   Overcast
3:53 PM 64.9 °F 53.1 °F 65% 30.01 in 10.0 mi NNW 10.4 mph - N/A   Overcast
4:53 PM 64.0 °F 54.0 °F 70% 30.02 in 10.0 mi NNW 6.9 mph - N/A   Overcast
5:53 PM 64.0 °F 54.0 °F 70% 30.03 in 10.0 mi North 3.5 mph - N/A   Overcast
6:10 PM 64.4 °F 53.6 °F 68% 30.03 in 10.0 mi Calm Calm - N/A   Overcast
6:53 PM 64.0 °F 54.0 °F 70% 30.02 in 10.0 mi WNW 5.8 mph - N/A   Overcast
7:53 PM 63.0 °F 55.0 °F 75% 30.04 in 10.0 mi WNW 3.5 mph - N/A   Overcast
8:53 PM 59.0 °F 55.0 °F 87% 30.05 in 10.0 mi Calm Calm - N/A   Mostly Cloudy
9:53 PM 59.0 °F 55.0 °F 87% 30.07 in 10.0 mi Calm Calm - N/A   Mostly Cloudy
10:53 PM 55.9 °F 53.1 °F 90% 30.07 in 9.0 mi Calm Calm - N/A   Clear
11:39 PM 55.4 °F 51.8 °F 88% 30.07 in 1.8 mi Calm Calm - N/A   Clear
11:48 PM 55.4 °F 53.6 °F 94% 30.08 in 3.0 mi Calm Calm - N/A   Clear
11:53 PM 54.0 °F 51.1 °F 90% 30.07 in 7.0 mi Calm Calm - N/A   Clear